TimeCST,TemperatureF,Dew PointF,Humidity,Sea Level PressureIn,VisibilityMPH,Wind Direction,Wind SpeedMPH,Gust SpeedMPH,PrecipitationIn,Events,Conditions,WindDirDegrees,DateUTC
12:15 AM,26.6,22.1,83,30.13,10.0,SW,6.9,-,N/A,,Overcast,220,2013-01-03 06:15:00
12:35 AM,26.6,22.6,85,30.13,10.0,SW,6.9,-,N/A,,Overcast,230,2013-01-03 06:35:00
12:55 AM,26.6,22.8,86,30.12,10.0,SW,6.9,-,N/A,,Overcast,230,2013-01-03 06:55:00
1:15 AM,27.0,23.0,85,30.12,10.0,WSW,6.9,-,N/A,,Overcast,250,2013-01-03 07:15:00
1:35 AM,27.3,23.5,86,30.13,10.0,WSW,6.9,-,N/A,,Overcast,250,2013-01-03 07:35:00
1:55 AM,26.4,22.8,86,30.14,10.0,WSW,6.9,-,N/A,,Scattered Clouds,250,2013-01-03 07:55:00
2:15 AM,27.1,23.7,87,30.14,10.0,WSW,5.8,-,N/A,,Mostly Cloudy,250,2013-01-03 08:15:00
2:35 AM,27.5,23.9,86,30.14,10.0,WSW,8.1,-,N/A,,Overcast,250,2013-01-03 08:35:00
2:55 AM,28.0,24.4,86,30.15,10.0,WSW,6.9,-,N/A,,Overcast,240,2013-01-03 08:55:00
3:15 AM,28.2,24.8,87,30.15,10.0,WSW,6.9,-,N/A,,Overcast,240,2013-01-03 09:15:00
3:35 AM,28.2,24.8,87,30.16,10.0,SW,5.8,-,N/A,,Overcast,230,2013-01-03 09:35:00
3:55 AM,28.0,25.0,88,30.15,10.0,SW,4.6,-,N/A,,Overcast,230,2013-01-03 09:55:00
4:15 AM,28.2,25.3,89,30.16,10.0,WSW,6.9,-,N/A,,Overcast,250,2013-01-03 10:15:00
4:35 AM,28.4,25.7,90,30.16,10.0,WSW,6.9,-,N/A,,Overcast,250,2013-01-03 10:35:00
4:55 AM,28.8,25.7,88,30.16,10.0,WSW,8.1,-,N/A,,Overcast,250,2013-01-03 10:55:00
5:15 AM,28.8,25.7,88,30.17,10.0,West,9.2,-,N/A,,Overcast,260,2013-01-03 11:15:00
5:35 AM,28.8,25.7,88,30.17,10.0,West,9.2,-,N/A,,Overcast,260,2013-01-03 11:35:00
5:55 AM,28.4,25.5,89,30.18,10.0,West,10.4,-,N/A,,Overcast,260,2013-01-03 11:55:00
6:15 AM,28.8,25.2,86,30.19,10.0,West,8.1,-,N/A,,Overcast,260,2013-01-03 12:15:00
6:35 AM,28.8,25.0,86,30.19,10.0,West,8.1,-,N/A,,Overcast,260,2013-01-03 12:35:00
6:55 AM,28.8,25.0,86,30.19,10.0,West,9.2,-,N/A,,Overcast,260,2013-01-03 12:55:00
7:15 AM,28.8,24.8,85,30.20,10.0,West,11.5,-,N/A,,Overcast,270,2013-01-03 13:15:00
7:35 AM,28.8,24.4,84,30.20,10.0,West,10.4,-,N/A,,Overcast,280,2013-01-03 13:35:00
7:55 AM,28.8,24.6,84,30.20,10.0,West,9.2,-,N/A,,Overcast,280,2013-01-03 13:55:00
8:15 AM,28.9,24.6,84,30.21,10.0,West,10.4,-,N/A,,Overcast,270,2013-01-03 14:15:00
8:35 AM,29.1,24.6,83,30.22,10.0,West,10.4,-,N/A,,Overcast,270,2013-01-03 14:35:00
8:55 AM,29.3,24.4,82,30.22,10.0,West,12.7,-,N/A,,Overcast,270,2013-01-03 14:55:00
9:35 AM,29.3,23.9,80,30.24,10.0,West,11.5,-,N/A,,Overcast,280,2013-01-03 15:35:00
9:55 AM,29.3,24.3,81,30.25,10.0,West,11.5,-,N/A,,Overcast,280,2013-01-03 15:55:00
10:15 AM,29.8,24.6,81,30.25,10.0,West,15.0,19.6,N/A,,Overcast,280,2013-01-03 16:15:00
10:35 AM,29.8,25.0,82,30.26,10.0,West,16.1,-,N/A,,Overcast,280,2013-01-03 16:35:00
10:55 AM,28.2,22.5,79,30.27,10.0,NW,16.1,21.9,N/A,,Overcast,310,2013-01-03 16:55:00
11:15 AM,27.5,21.2,77,30.27,10.0,WNW,15.0,18.4,N/A,,Overcast,290,2013-01-03 17:15:00
11:35 AM,27.1,20.1,75,30.27,10.0,WNW,12.7,-,N/A,,Overcast,290,2013-01-03 17:35:00
11:55 AM,27.3,19.9,74,30.26,10.0,West,12.7,-,N/A,,Overcast,280,2013-01-03 17:55:00
12:15 PM,28.8,20.5,71,30.26,10.0,West,16.1,-,N/A,,Scattered Clouds,270,2013-01-03 18:15:00
12:35 PM,28.4,20.1,71,30.25,10.0,West,16.1,24.2,N/A,,Clear,270,2013-01-03 18:35:00
12:55 PM,27.9,19.0,69,30.25,10.0,WNW,17.3,25.3,N/A,,Clear,290,2013-01-03 18:55:00
1:15 PM,27.7,19.0,70,30.26,10.0,WNW,18.4,21.9,N/A,,Clear,290,2013-01-03 19:15:00
1:35 PM,27.9,18.3,67,30.26,10.0,West,15.0,20.7,N/A,,Clear,280,2013-01-03 19:35:00
1:55 PM,27.5,17.1,65,30.26,10.0,West,18.4,-,N/A,,Clear,280,2013-01-03 19:55:00
2:15 PM,26.6,15.6,63,30.27,10.0,WNW,19.6,-,N/A,,Clear,290,2013-01-03 20:15:00
2:35 PM,26.6,15.4,63,30.27,10.0,WNW,17.3,23.0,N/A,,Clear,290,2013-01-03 20:35:00
2:55 PM,26.1,15.4,64,30.28,10.0,West,18.4,23.0,N/A,,Clear,280,2013-01-03 20:55:00
3:15 PM,25.7,14.9,64,30.28,10.0,West,16.1,-,N/A,,Clear,280,2013-01-03 21:15:00
3:35 PM,24.8,15.1,67,30.29,10.0,West,15.0,-,N/A,,Clear,280,2013-01-03 21:35:00
3:55 PM,24.6,15.6,69,30.29,10.0,West,10.4,-,N/A,,Clear,280,2013-01-03 21:55:00
4:15 PM,23.9,15.8,71,30.30,10.0,West,10.4,-,N/A,,Clear,280,2013-01-03 22:15:00
4:35 PM,22.8,15.3,73,30.30,10.0,West,10.4,-,N/A,,Clear,280,2013-01-03 22:35:00
4:55 PM,21.4,14.9,76,30.31,10.0,WNW,6.9,-,N/A,,Clear,290,2013-01-03 22:55:00
5:15 PM,20.3,14.4,78,30.31,10.0,WNW,8.1,-,N/A,,Clear,290,2013-01-03 23:15:00
5:35 PM,19.9,14.0,78,30.32,10.0,WNW,9.2,-,N/A,,Clear,290,2013-01-03 23:35:00
5:55 PM,19.0,13.5,79,30.33,10.0,West,8.1,-,N/A,,Clear,280,2013-01-03 23:55:00
6:15 PM,18.3,13.1,80,30.33,10.0,West,6.9,-,N/A,,Clear,280,2013-01-04 00:15:00
6:35 PM,16.5,12.4,84,30.33,10.0,West,5.8,-,N/A,,Clear,280,2013-01-04 00:35:00
6:55 PM,16.3,12.2,84,30.34,10.0,West,6.9,-,N/A,,Clear,280,2013-01-04 00:55:00
7:15 PM,15.8,12.0,85,30.34,10.0,West,6.9,-,N/A,,Clear,280,2013-01-04 01:15:00
7:35 PM,15.4,11.7,85,30.34,10.0,West,6.9,-,N/A,,Clear,280,2013-01-04 01:35:00
7:55 PM,14.7,11.3,86,30.34,10.0,West,5.8,-,N/A,,Clear,270,2013-01-04 01:55:00
8:15 PM,14.9,11.3,86,30.35,10.0,West,8.1,-,N/A,,Clear,280,2013-01-04 02:15:00
8:35 PM,14.7,10.8,84,30.35,10.0,WNW,8.1,-,N/A,,Clear,290,2013-01-04 02:35:00
8:55 PM,13.8,10.2,86,30.35,10.0,West,8.1,-,N/A,,Clear,280,2013-01-04 02:55:00
9:15 PM,13.5,9.5,84,30.35,10.0,West,8.1,-,N/A,,Clear,280,2013-01-04 03:15:00
9:35 PM,13.3,9.5,85,30.35,10.0,WNW,6.9,-,N/A,,Clear,290,2013-01-04 03:35:00
9:55 PM,13.1,9.1,84,30.35,10.0,WNW,6.9,-,N/A,,Clear,290,2013-01-04 03:55:00
10:15 PM,12.6,8.6,84,30.34,10.0,West,8.1,-,N/A,,Clear,270,2013-01-04 04:15:00
10:35 PM,13.1,9.0,84,30.34,10.0,WSW,6.9,-,N/A,,Clear,240,2013-01-04 04:35:00
10:55 PM,12.9,8.6,83,30.34,10.0,West,6.9,-,N/A,,Clear,260,2013-01-04 04:55:00
11:15 PM,11.8,7.7,83,30.34,10.0,West,6.9,-,N/A,,Clear,270,2013-01-04 05:15:00
11:35 PM,10.9,7.0,84,30.34,10.0,West,6.9,-,N/A,,Clear,270,2013-01-04 05:35:00
11:55 PM,10.8,7.5,87,30.33,10.0,WSW,5.8,-,N/A,,Clear,250,2013-01-04 05:55:00